Regional Weather Roundup
Issued by NWS

Home | Current Version | Previous Version | Text Only | Print | Product List | Glossary On
Versions: 1 2 3 4 5 6 7 8 9 10 11 12 13 14 15 16 17 18 19 20 21 22 23 24 25 26 27
000
ASUS45 KBOU 292307
RWRCO

WEATHER ROUNDUP FOR COLORADO
NATIONAL WEATHER SERVICE DENVER/BOULDER CO
500 PM MDT MON AUG 29 2016

NOTE: "FAIR" INDICATES FEW OR NO CLOUDS BELOW 12000 FEET WITH NO
SIGNIFICANT WEATHER AND/OR OBSTRUCTIONS TO VISIBILITY.

COZ001>005-013-030-031-300000-
...NORTHWEST COLORADO...

CITY           SKY/WX    TMP DP  RH WIND       PRES   REMARKS
CRAIG          FAIR      82  31  15 VRB3      30.27F
HAYDEN         FAIR      79  32  18 E9        30.30F
MEEKER         FAIR      79  30  16 VRB3      30.27F
MOUNT WERNER   NOT AVBL
STEAMBOAT SPGS FAIR      78  33  19 NE16      30.32F
WALDEN         FAIR      70  30  23 NE10G20   30.45F
$$

COZ006>008-011-300000-
...WEST CENTRAL VALLEYS...

CITY           SKY/WX    TMP DP  RH WIND       PRES   REMARKS
GRAND JUNCTION FAIR      84  41  21 E8        30.17F
MONTROSE       FAIR      74  43  32 N3        30.27F
EAGLE          PTSUNNY   70  48  46 NE8       30.35R
RIFLE          FAIR      82  40  22 CALM      30.22F
DELTA          FAIR      78  40  25 CALM      30.23S
NUCLA          FAIR     N/A N/A N/A NW3       30.27F
$$

COZ017>023-064>068-300000-
...SOUTHWEST COLORADO...

CITY           SKY/WX    TMP DP  RH WIND       PRES   REMARKS
DURANGO        LGT RAIN  68  44  42 NE15      30.32R
CORTEZ         FAIR      73  51  46 CALM      30.25F
PAGOSA SPRINGS FAIR      67  39  34 SE3       30.40S
TELLURIDE      PTSUNNY   62  38  42 W5        30.48R
WOLF CREEK PAS FAIR      43  37  81 NE9       30.68F
$$

COZ009-010-012-014-032>034-037-058>063-300000-
...CENTRAL COLORADO...

CITY           SKY/WX    TMP DP  RH WIND       PRES   REMARKS
ASPEN          TSTM      59  48  67 S12       30.43R
BUENA VISTA    RAIN      52  47  83 W8        30.52R
COPPER MTN     CLOUDY    45  34  65 SE17G24   30.71F
BERTHOUD PASS  PTSUNNY   37  27  65 E32G40    30.74S
COTTONWOOD PAS RAIN      50  41  71 SW5       30.62R
GUNNISON       FAIR      63  43  48 E3        30.43S
KREMMLING      CLOUDY    59  41  51 S16       30.40R
LEADVILLE      LGT RAIN  44  42  93 CALM      30.60S FOG
MONARCH PASS   CLOUDY    37  37 100 E12       30.79R
SALIDA         CLOUDY    57  47  69 N13G21    30.55R
SUNLIGHT       FAIR      52  41  66 SW6       30.63S
WILKERSON PASS LGT RAIN  37  37 100 E16G30    30.68S VSB 1
$$

COZ069>075-300000-
...SAN LUIS VALLEY/SANGRE DE CRISTO MOUNTAINS...

CITY           SKY/WX    TMP DP  RH WIND       PRES   REMARKS
ALAMOSA        PTSUNNY   64  43  46 W13       30.39R
LA VETA PASS   PTSUNNY   54  46  76 NE7       30.57F
SAGUACHE       CLOUDY    54  46  76 NW17G24   30.48R THUNDER
$$

COZ035-036-038>040-300000-
...NORTHERN COLORADO FRONT RANGE...

CITY           SKY/WX    TMP DP  RH WIND       PRES   REMARKS
DENVER INTL AP PTSUNNY   70  49  47 SW17G28   30.29F
DMNS CITY PARK   N/A     65  49  55 S7G17     30.30F
AURORA         PTSUNNY   66  50  56 SW15      30.32F
FRONT RANGE AP PTSUNNY   73  50  43 SW18        N/A
ERIE MUNI ARPT FAIR      70  48  45 S12       30.27F
BOULDER MUN AP FAIR      73  45  35 S8        30.27F
CENTENNIAL     PTSUNNY   62  50  64 SW15      30.35S
BROOMFIELD     PTSUNNY   66  48  52 SW9       30.32F
FORT COLLINS   PTSUNNY   66  48  52 NW12G24   30.30R THUNDER
LONGMONT       FAIR      76  48  37 CALM      30.30R
$$

COZ041-046-047-076>085-087-088-300000-
...PIKES PEAK/PALMER DIVIDE AND SOUTHERN FOOTHILLS...

CITY           SKY/WX    TMP DP  RH WIND       PRES   REMARKS
COLO. SPRINGS  LGT RAIN  57  54  89 NW15      30.43R FOG
A. F. ACADEMY  LGT RAIN  56  52  86 CALM      30.46R
SCHRIEVER AFB  NOT AVBL
ELLICOTT       NOT AVBL
FALCON         RAIN      53  50  88 NW13G21   30.46R
FORT CARSON    LGT RAIN  56  51  84 NW22      30.39R
LIMON          FAIR      70  54  56 S6        30.31R
MONUMENT HILL  RAIN      52  50  93 W10       30.47R
TRINIDAD       CLOUDY    73  48  41 E9        30.31F
$$

COZ042>045-048>051-090-091-300000-
...NORTHEAST COLORADO...

CITY           SKY/WX    TMP DP  RH WIND       PRES   REMARKS
GREELEY ARPT   PTSUNNY   64  55  72 W9        30.28S THUNDER
AKRON          FAIR      78  57  48 S9        30.26S
BURLINGTON     FAIR      73  58  59 S10       30.25F
WRAY           FAIR      79  54  41 S10G17    30.23R
STERLING       PTSUNNY   77  59  53 S3        30.21R
HOLYOKE        FAIR      79  63  57 SE7       30.23R
FORT MORGAN    FAIR      77  52  41 SE7       30.25S
$$

COZ086-089-092>099-300000-
...SOUTHEAST COLORADO...

CITY           SKY/WX    TMP DP  RH WIND       PRES   REMARKS
PUEBLO         PTSUNNY   67  52  58 N31G46    30.27R
LA JUNTA       FAIR      78  51  38 SE7       30.22S
LAMAR          FAIR      79  57  46 SE8G18    30.19S
SPRINGFIELD      N/A     69  59  70 SE9       30.25S
$$




USA.gov is the U.S. government's official web portal to all federal, state and local government web resources and services.